Weather History for Taunton, MA

Change the Weather History Date:

Thursday, February 13, 2014

  Actual Average Record
Temperature  
Mean Temperature 28 °F -  
Max Temperature 41 °F 37 °F 61 °F (1951)
Min Temperature 15 °F 15 °F -14 °F (1967)
Degree Days  
Heating Degree Days 37    
Moisture  
Dew Point 31 °F    
Average Humidity 88    
Maximum Humidity 93    
Minimum Humidity 81    
Precipitation  
Precipitation 1.53 in - - ()
Sea Level Pressure  
Sea Level Pressure 29.77 in    
Wind  
Wind Speed 5 mph (NE)    
Max Wind Speed 16 mph    
Max Gust Speed 28 mph    
Visibility 4 miles    
Events Rain , Snow    
Averages and records for this station are not official NWS values.
T = Trace of Precipitation, MM = Missing Value Source: NWS Daily Summary

Daily Weather History Graph

Daily Weather History Graph

Search for Another Location

Airport:

Trip Planner

Search our weather history database for the weather conditions in past years. The results will help you decide how hot, cold, wet, or windy it might be!

Date:

Astronomy

Feb. 13, 2014 Rise Set
Actual Time 6:42 AM EST 5:14 PM EST
Civil Twilight 6:13 AM EST 5:43 PM EST
Nautical Twilight 5:41 AM EST 6:16 PM EST
Astronomical Twilight 5:08 AM EST 6:48 PM EST
Moon 4:20 PM EST (2/13) 5:34 AM EST (2/13)
Length of Visible Light 11h 29m
Length of Day
10h 32m
Waxing Gibbous, 98% of the Moon is Illuminated
Feb 13
Waxing Gibbous
Feb 14
Full
Feb 22
Last Quarter
Mar 1
New
Mar 8
First Quarter

Hourly Weather History & Observations

Time (EST) Temp. Windchill Dew Point Humidity Pressure Visibility Wind Dir Wind Speed Gust Speed Precip Events Conditions
12:40 AM 16.0 °F - 10.9 °F 81% 30.37 in 10.0 mi Calm Calm - N/A   Scattered Clouds
12:52 AM 15.1 °F - 12.0 °F 88% 30.37 in 9.0 mi Calm Calm - N/A   Clear
1:52 AM 19.0 °F - 14.0 °F 81% 30.33 in 9.0 mi Calm Calm - N/A   Overcast
2:52 AM 19.9 °F - 15.1 °F 81% 30.32 in 10.0 mi Calm Calm - N/A   Mostly Cloudy
3:52 AM 21.9 °F - 17.1 °F 82% 30.31 in 4.0 mi Calm Calm - 0.00 in Snow Light Snow
4:00 AM 21.9 °F - 17.1 °F 82% 30.30 in 2.5 mi Calm Calm - 0.00 in Snow Light Snow
4:34 AM 23.0 °F - 18.0 °F 81% 30.28 in 4.0 mi Calm Calm - 0.00 in Snow Light Snow
4:52 AM 23.0 °F - 19.0 °F 85% 30.28 in 4.0 mi Calm Calm - 0.00 in Snow Light Snow
5:52 AM 24.1 °F - 19.9 °F 84% 30.25 in 4.0 mi Calm Calm - 0.00 in Snow Light Snow
6:52 AM 27.0 °F - 24.1 °F 89% 30.21 in 6.0 mi Calm Calm - 0.00 in Snow Light Snow
7:45 AM 28.9 °F - 26.1 °F 89% 30.18 in 6.0 mi Calm Calm - 0.00 in Snow Light Snow
7:52 AM 30.0 °F 26.5 °F 26.1 °F 85% 30.17 in 3.0 mi ENE 3.5 mph - 0.00 in Snow Light Snow
7:59 AM 30.0 °F - 26.1 °F 85% 30.16 in 2.0 mi Calm Calm - 0.00 in Snow Light Snow
8:25 AM 32.0 °F 27.5 °F 28.0 °F 85% 30.14 in 2.5 mi East 4.6 mph - 0.00 in Snow Light Snow
8:47 AM 33.8 °F 28.6 °F 30.2 °F 87% 30.12 in 1.8 mi ENE 5.8 mph - 0.01 in Snow Light Snow
8:52 AM 33.1 °F 27.7 °F 30.0 °F 89% 30.12 in 1.8 mi East 5.8 mph - 0.01 in Snow Light Snow
9:02 AM 34.0 °F 28.0 °F 30.9 °F 89% 30.10 in 1.5 mi ENE 6.9 mph - 0.00 in Snow Light Snow
9:18 AM 34.0 °F 27.2 °F 30.9 °F 89% 30.09 in 3.0 mi East 8.1 mph - 0.00 in Snow Light Snow
9:52 AM 35.1 °F 28.6 °F 32.0 °F 89% 30.06 in 4.0 mi East 8.1 mph - 0.01 in Snow Light Snow
10:09 AM 35.1 °F 28.6 °F 32.0 °F 89% 30.04 in 2.5 mi East 8.1 mph - 0.01 in Snow Light Snow
10:28 AM 35.1 °F 30.1 °F 32.0 °F 89% 30.01 in 1.5 mi ENE 5.8 mph - 0.03 in Snow Light Snow
10:52 AM 35.1 °F 31.0 °F 32.0 °F 89% 29.98 in 1.8 mi ENE 4.6 mph - 0.06 in Snow Light Snow
11:02 AM 35.1 °F 29.3 °F 32.0 °F 89% 29.97 in 3.0 mi Variable 6.9 mph - 0.02 in Snow Light Snow
11:52 AM 36.0 °F 29.0 °F 33.1 °F 89% 29.89 in 2.0 mi ENE 9.2 mph 20.7 mph 0.17 in Snow Light Snow
12:35 PM 36.0 °F 29.0 °F 33.1 °F 89% 29.80 in 3.0 mi NE 9.2 mph - 0.20 in Rain Rain
12:42 PM 36.0 °F 28.0 °F 34.0 °F 93% 29.78 in 3.0 mi NE 11.5 mph 19.6 mph 0.22 in Rain Rain
12:52 PM 37.0 °F 30.4 °F 34.0 °F 89% 29.78 in 2.5 mi NE 9.2 mph 18.4 mph 0.27 in Rain Rain
1:00 PM 37.9 °F 32.1 °F 35.1 °F 89% 29.76 in 4.0 mi NE 8.1 mph 20.7 mph 0.02 in Rain Rain
1:25 PM 39.0 °F 31.4 °F 36.0 °F 89% 29.72 in 2.5 mi ENE 12.7 mph 23.0 mph 0.13 in Rain Heavy Rain
1:52 PM 39.0 °F 31.8 °F 36.0 °F 89% 29.66 in 3.0 mi ENE 11.5 mph 23.0 mph 0.23 in Rain Rain
2:22 PM 39.9 °F 32.5 °F 37.0 °F 89% 29.60 in 2.5 mi NE 12.7 mph 26.5 mph 0.10 in Rain Rain
2:32 PM 39.9 °F 32.1 °F 37.0 °F 89% 29.58 in 1.8 mi NE 13.8 mph 25.3 mph 0.14 in Rain Rain
2:52 PM 39.9 °F 32.5 °F 37.9 °F 93% 29.56 in 1.5 mi NE 12.7 mph 21.9 mph 0.21 in Rain Rain
3:52 PM 39.9 °F 33.4 °F 37.0 °F 89% 29.50 in 1.8 mi NNE 10.4 mph 21.9 mph 0.14 in Rain Light Rain
4:09 PM 39.9 °F 32.9 °F 37.0 °F 89% 29.47 in 2.0 mi NNE 11.5 mph 24.2 mph 0.03 in Rain Light Rain
4:17 PM 39.9 °F 33.4 °F 37.0 °F 89% 29.46 in 1.8 mi NNE 10.4 mph 25.3 mph 0.04 in Rain Light Rain
4:27 PM 39.9 °F 32.5 °F 37.0 °F 89% 29.45 in 2.5 mi NNE 12.7 mph 27.6 mph 0.05 in Rain Light Rain
4:52 PM 39.9 °F 32.5 °F 37.0 °F 89% 29.42 in 1.8 mi NNE 12.7 mph 26.5 mph 0.07 in Rain Light Rain
5:01 PM 39.9 °F 32.9 °F 37.9 °F 93% 29.40 in 2.5 mi NE 11.5 mph 23.0 mph 0.01 in Rain Light Rain
5:29 PM 41.0 °F 32.8 °F 37.9 °F 89% 29.37 in 4.0 mi NNE 16.1 mph 26.5 mph 0.02 in Rain Light Rain
5:52 PM 41.0 °F 35.2 °F 37.9 °F 89% 29.36 in 4.0 mi NNE 9.2 mph 23.0 mph 0.03 in Rain Light Rain
6:52 PM 39.9 °F 32.1 °F 37.0 °F 89% 29.31 in 3.0 mi North 13.8 mph 24.2 mph 0.04 in Rain Light Rain
7:52 PM 39.0 °F 31.8 °F 36.0 °F 89% 29.26 in 5.0 mi North 11.5 mph 25.3 mph 0.03 in Rain Light Rain
8:52 PM 39.0 °F 32.8 °F 36.0 °F 89% 29.22 in 4.0 mi North 9.2 mph 19.6 mph 0.00 in   Overcast
9:23 PM 37.9 °F 32.1 °F 36.0 °F 93% 29.16 in 3.0 mi North 8.1 mph 19.6 mph 0.00 in Rain Light Rain
9:42 PM 37.9 °F 32.1 °F 36.0 °F 93% 29.14 in 4.0 mi NNE 8.1 mph 17.3 mph 0.00 in Rain Light Rain
9:52 PM 37.9 °F 30.9 °F 36.0 °F 93% 29.14 in 4.0 mi NNE 10.4 mph 18.4 mph 0.00 in   Overcast
10:14 PM 37.9 °F 31.5 °F 36.0 °F 93% 29.11 in 4.0 mi NNE 9.2 mph 23.0 mph 0.02 in Rain Light Rain
10:52 PM 37.9 °F 30.5 °F 35.1 °F 89% 29.04 in 3.0 mi NNE 11.5 mph 25.3 mph 0.10 in Rain Heavy Rain
11:05 PM 37.9 °F 32.7 °F 35.1 °F 89% 29.02 in 5.0 mi Variable 6.9 mph 23.0 mph 0.01 in Rain Light Rain
11:52 PM 37.9 °F 32.1 °F 36.0 °F 93% 28.97 in 3.0 mi North 8.1 mph 18.4 mph 0.16 in Rain Rain